******************************************************************************* JPL/HORIZONS (2015 KG163) 2025-Dec-12 17:58:23 Rec #:50200809 (+COV) Soln.date: 2021-Apr-15_13:48:53 # obs: 29 (2015-2017) IAU76/J2000 helio. ecliptic osc. elements (au, days, deg., period=Julian yrs): EPOCH= 2457392.5 ! 2016-Jan-05.00 (TDB) Residual RMS= .093975 EC= .9452785605676738 QR= 40.51264600307233 TP= 2459710.5698614954 OM= 219.0761844548053 W= 31.88766772913458 IN= 13.97791628483387 A= 740.3432077691259 MA= 359.8865822702483 ADIST= 1440.173769535179 PER= 20144.56282 N= 4.8928E-5 ANGMOM= .152710059 DAN= 43.71874 DDN= 399.27689 L= 250.1965786 B= 7.3308711 MOID= 39.5060997 TP= 2022-May-11.0698614954 Asteroid physical parameters (km, seconds, rotational period in hours): GM= n.a. RAD= n.a. ROTPER= n.a. H= 8.2 G= .150 B-V= n.a. ALBEDO= n.a. STYP= n.a. ASTEROID comments: 1: soln ref.= JPL#3, OCC=3 2: source=ORB ******************************************************************************* ******************************************************************************* Ephemeris / WWW_USER Fri Dec 12 17:58:23 2025 Pasadena, USA / Horizons ******************************************************************************* Target body name: (2015 KG163) {source: JPL#3} Center body name: Solar System Barycenter (0) {source: DE441} Center-site name: BODY CENTER ******************************************************************************* Start time : A.D. 2023-Feb-25 00:00:00.0000 TDB Stop time : A.D. 2023-Sep-13 00:00:00.0000 TDB Step-size : 1 calendar years ******************************************************************************* Center geodetic : 0.0, 0.0, 0.0 {E-lon(deg),Lat(deg),Alt(km)} Center cylindric: 0.0, 0.0, 0.0 {E-lon(deg),Dxy(km),Dz(km)} Center radii : (undefined) Keplerian GM : 2.9630927493968080E-04 au^3/d^2 Small perturbers: Yes {source: SB441-N16} Output units : AU-D, deg, Julian Day Number (Tp) Calendar mode : Mixed Julian/Gregorian Output type : GEOMETRIC osculating elements Output format : 10 Reference frame : Ecliptic of J2000.0 ******************************************************************************* Initial IAU76/J2000 heliocentric ecliptic osculating elements (au, days, deg.): EPOCH= 2457392.5 ! 2016-Jan-05.00 (TDB) Residual RMS= .093975 EC= .9452785605676738 QR= 40.51264600307233 TP= 2459710.5698614954 OM= 219.0761844548053 W= 31.88766772913458 IN= 13.97791628483387 Equivalent ICRF heliocentric cartesian coordinates (au, au/d): X=-2.154120390766992E+01 Y=-3.314715583207337E+01 Z=-1.074917010400632E+01 VX= 3.324116747509419E-03 VY=-1.725321872401179E-03 VZ= 1.419708267640691E-04 Asteroid physical parameters (km, seconds, rotational period in hours): GM= n.a. RAD= n.a. ROTPER= n.a. H= 8.2 G= .150 B-V= n.a. ALBEDO= n.a. STYP= n.a. ******************************************************************************* JDTDB EC QR IN OM W Tp N MA TA A AD PR ******************************************************************************* $$SOE 2460000.500000000 = A.D. 2023-Feb-25 00:00:00.0000 TDB EC= 9.404347400447356E-01 QR= 4.049342135725696E+01 IN= 1.399418820126890E+01 OM= 2.191029686050961E+02 W = 3.209749096759435E+01 Tp= 2459754.811881414615 N = 5.564268887169660E-05 MA= 1.367074754190580E-02 TA= 1.309831868624077E+00 A = 6.798160771508296E+02 AD= 1.319138732944402E+03 PR= 6.469852685050933E+06 $$EOE ******************************************************************************* TIME Barycentric Dynamical Time ("TDB" or T_eph) output was requested. This continuous coordinate time is equivalent to the relativistic proper time of a clock at rest in a reference frame co-moving with the solar system barycenter but outside the system's gravity well. It is the independent variable in the solar system relativistic equations of motion. TDB runs at a uniform rate of one SI second per second and is independent of irregularities in Earth's rotation. CALENDAR SYSTEM Mixed calendar mode was active such that calendar dates after AD 1582-Oct-15 (if any) are in the modern Gregorian system. Dates prior to 1582-Oct-5 (if any) are in the Julian calendar system, which is automatically extended for dates prior to its adoption on 45-Jan-1 BC. The Julian calendar is useful for matching historical dates. The Gregorian calendar more accurately corresponds to the Earth's orbital motion and seasons. A "Gregorian-only" calendar mode is available if such physical events are the primary interest. REFERENCE FRAME AND COORDINATES Ecliptic at the standard reference epoch Reference epoch: J2000.0 X-Y plane: adopted Earth orbital plane at the reference epoch Note: IAU76 obliquity of 84381.448 arcseconds wrt ICRF X-Y plane X-axis : ICRF Z-axis : perpendicular to the X-Y plane in the directional (+ or -) sense of Earth's north pole at the reference epoch. Symbol meaning [1 au= 149597870.700 km, 1 day= 86400.0 s]: JDTDB Julian Day Number, Barycentric Dynamical Time EC Eccentricity, e QR Periapsis distance, q (au) IN Inclination w.r.t X-Y plane, i (degrees) OM Longitude of Ascending Node, OMEGA, (degrees) W Argument of Perifocus, w (degrees) Tp Time of periapsis (Julian Day Number) N Mean motion, n (degrees/day) MA Mean anomaly, M (degrees) TA True anomaly, nu (degrees) A Semi-major axis, a (au) AD Apoapsis distance (au) PR Sidereal orbit period (day) ABERRATIONS AND CORRECTIONS Geometric osculating elements have NO corrections or aberrations applied. Computations by ... Solar System Dynamics Group, Horizons On-Line Ephemeris System 4800 Oak Grove Drive, Jet Propulsion Laboratory Pasadena, CA 91109 USA General site: https://ssd.jpl.nasa.gov/ Mailing list: https://ssd.jpl.nasa.gov/email_list.html System news : https://ssd.jpl.nasa.gov/horizons/news.html User Guide : https://ssd.jpl.nasa.gov/horizons/manual.html Connect : browser https://ssd.jpl.nasa.gov/horizons/app.html#/x API https://ssd-api.jpl.nasa.gov/doc/horizons.html command-line telnet ssd.jpl.nasa.gov 6775 e-mail/batch https://ssd.jpl.nasa.gov/ftp/ssd/horizons_batch.txt scripts https://ssd.jpl.nasa.gov/ftp/ssd/SCRIPTS Author : Jon.D.Giorgini@jpl.nasa.gov ******************************************************************************* !$$SOF CENTER = '@0' COMMAND = '2015 KG163' OUT_UNITS = 'AU-D' START_TIME = 'JD2460000.5' STEP_SIZE = '1y' STOP_TIME = 'JD2460200.5' TABLE_TYPE = 'ELEMENTS'